Pagina principale
METAR-TAF:

METAR-TAF

Aeroporti :

Capo Bellavista

Tortolì, Italia

latitudine: 39-56N, longitudine: 009-43E, altezza: 138 m

Osservazione

Il bollettino è stato emesso 42 minuti fa, alle 15:55 UTC
Vento 2 kt da nord-ovest
Temperature 23°C
Umidità 31%
Pressione 1014 hPa
Visibilità 10 km o più
nessuna nube inferiore a 1500 m e nessun cumulonembo

METAR: LIEB 151555Z 32002KT CAVOK 23/05 Q1014 RMK OVC OVC200 QUK 1 QUL 0 VIS MAR 20 KM MON LIB VIS MIN 9999

Ora: 18:37 (16:37 UTC)


TAF: mancante

Osservazioni e previsioni meteorologiche di più di 4000 aeroporti (messaggi METAR e TAF).

Le stazioni disponibili sono rappresentate dai dischi gialli e rossi sulla carta.

Puntare il mouse per vedere il nome della stazione.

Clicca sopra per visualizzare le osservazioni e previsioni meteorologiche.

Per cambiare la mappa : fare clic sui pulsanti verdi con una croce nera per ingrandire, il pulsante verde con un trattino per diminuire, o sulla freccia verde per le mappe adiacenti.


METAR-TAF: